| time (UTC) | temp F | wind direction | speed knots | gust knots | rain 1hr in | rain 24hr in | rain mn in | humidity % | barometer mb |
| 20260903014506 | 65 | 210 | 0.9 | 3.5 | 0.00 | 0.01 | 0.01 | 89 | 1022.2 |
| 20260903013006 | 65 | 233 | 0.9 | 2.6 | 0.00 | 0.01 | 0.01 | 89 | 1022.5 |
| 20260903011505 | 64 | 206 | 0.0 | 2.6 | 0.00 | 0.01 | 0.01 | 88 | 1022.6 |
| 20260903010009 | 65 | 226 | 0.0 | 2.6 | 0.00 | 0.01 | 0.01 | 88 | 1022.8 |
| 20260903004506 | 65 | 234 | 0.0 | 2.6 | 0.00 | 0.01 | 0.01 | 88 | 1022.7 |
| 20260903003004 | 64 | 230 | 0.9 | 3.5 | 0.00 | 0.01 | 0.01 | 88 | 1022.8 |
| 20260903001505 | 65 | 184 | 0.9 | 4.3 | 0.00 | 0.01 | 0.01 | 88 | 1022.6 |
| 20260903000003 | 65 | 268 | 0.9 | 3.5 | 0.00 | 0.01 | 0.01 | 88 | 1022.5 |
| 20260902234503 | 65 | 236 | 0.9 | 3.5 | 0.00 | 0.01 | 0.01 | 88 | 1022.5 |
| 20260902233003 | 65 | 259 | 0.9 | 3.5 | 0.00 | 0.01 | 0.01 | 87 | 1022.5 |
| 20260902231502 | 65 | 200 | 0.9 | 3.5 | 0.00 | 0.01 | 0.01 | 86 | 1022.3 |
| 20260902230001 | 65 | 224 | 0.9 | 3.5 | 0.00 | 0.01 | 0.01 | 85 | 1022.4 |
| 20260902224501 | 65 | 226 | 1.7 | 3.5 | 0.00 | 0.01 | 0.01 | 86 | 1022.4 |
| 20260902223002 | 66 | 148 | 0.0 | 3.5 | 0.00 | 0.01 | 0.01 | 85 | 1022.2 |
| 20260902221600 | 66 | 159 | 0.0 | 3.5 | 0.00 | 0.01 | 0.01 | 85 | 1022.2 |
| 20260902220108 | 66 | 155 | 0.0 | 5.2 | 0.00 | 0.01 | 0.01 | 85 | 1022.4 |
| 20260902214559 | 66 | 158 | 0.0 | 0.9 | 0.00 | 0.01 | 0.01 | 85 | 1022.4 |
| 20260902213101 | 66 | 148 | 2.6 | 5.2 | 0.00 | 0.01 | 0.01 | 84 | 1022.5 |
| 20260902211600 | 67 | 176 | 0.0 | 3.5 | 0.00 | 0.01 | 0.01 | 83 | 1022.6 |
| 20260902210058 | 67 | 198 | 2.6 | 4.3 | 0.00 | 0.01 | 0.01 | 83 | 1022.9 |
| 20260902204558 | 67 | 148 | 0.9 | 3.5 | 0.00 | 0.01 | 0.01 | 84 | 1022.9 |
| 20260902203100 | 67 | 202 | 1.7 | 5.2 | 0.00 | 0.01 | 0.01 | 83 | 1023.0 |
| 20260902201600 | 68 | 156 | 2.6 | 4.3 | 0.00 | 0.01 | 0.01 | 82 | 1022.9 |
| 20260902200056 | 69 | 162 | 3.5 | 6.1 | 0.00 | 0.01 | 0.01 | 81 | 1022.9 |
| 20260902194600 | 68 | 184 | 2.6 | 6.1 | 0.00 | 0.01 | 0.01 | 83 | 1022.9 |
| 20260902193055 | 69 | 165 | 1.7 | 5.2 | 0.00 | 0.01 | 0.01 | 83 | 1022.9 |
| 20260902191554 | 69 | 174 | 2.6 | 6.1 | 0.00 | 0.01 | 0.01 | 80 | 1022.9 |
| 20260902190054 | 70 | 198 | 4.3 | 7.0 | 0.00 | 0.01 | 0.01 | 81 | 1022.9 |
| 20260902184553 | 70 | 154 | 2.6 | 7.8 | 0.00 | 0.01 | 0.01 | 81 | 1022.8 |
| 20260902183052 | 70 | 191 | 3.5 | 7.0 | 0.00 | 0.01 | 0.01 | 80 | 1022.7 |
| 20260902181552 | 72 | 152 | 0.0 | 1.7 | 0.00 | 0.01 | 0.01 | 76 | 1022.8 |
| 20260902180056 | 72 | 169 | 0.0 | 0.9 | 0.00 | 0.01 | 0.01 | 76 | 1022.7 |
| 20260902174551 | 73 | 98 | 0.0 | 0.9 | 0.00 | 0.01 | 0.01 | 73 | 1022.8 |
| 20260902173049 | 73 | 124 | 0.0 | 0.9 | 0.00 | 0.01 | 0.01 | 74 | 1022.8 |
| 20260902171549 | 73 | 117 | 0.0 | 1.7 | 0.00 | 0.01 | 0.01 | 77 | 1022.8 |
| 20260902170046 | 72 | 153 | 0.0 | 1.7 | 0.00 | 0.01 | 0.01 | 78 | 1022.7 |
| 20260902164543 | 72 | 128 | 0.0 | 2.6 | 0.00 | 0.01 | 0.01 | 79 | 1022.6 |
| 20260902163044 | 71 | 106 | 0.0 | 4.3 | 0.00 | 0.01 | 0.01 | 82 | 1022.4 |
| 20260902161542 | 71 | 120 | 1.7 | 5.2 | 0.00 | 0.01 | 0.01 | 82 | 1022.4 |
| 20260902160040 | 70 | 51 | 0.9 | 7.0 | 0.00 | 0.01 | 0.01 | 83 | 1022.6 |
| 20260902154537 | 70 | 205 | 0.9 | 6.1 | 0.00 | 0.01 | 0.01 | 84 | 1022.6 |
| 20260902153036 | 70 | 122 | 1.7 | 6.1 | 0.00 | 0.01 | 0.01 | 83 | 1022.6 |
| 20260902151540 | 70 | 117 | 0.9 | 6.1 | 0.00 | 0.01 | 0.01 | 83 | 1022.8 |
| 20260902150032 | 69 | 51 | 0.9 | 7.0 | 0.00 | 0.01 | 0.01 | 84 | 1022.8 |
| 20260902144529 | 68 | 83 | 2.6 | 6.1 | 0.00 | 0.01 | 0.01 | 84 | 1022.9 |
| 20260902143026 | 68 | 96 | 3.5 | 6.1 | 0.00 | 0.01 | 0.01 | 84 | 1022.9 |
| 20260902141530 | 67 | 83 | 2.6 | 6.1 | 0.00 | 0.01 | 0.01 | 84 | 1022.8 |
| 20260902140022 | 67 | 118 | 2.6 | 6.1 | 0.00 | 0.01 | 0.01 | 83 | 1022.8 |
| 20260902134529 | 67 | 115 | 2.6 | 6.1 | 0.00 | 0.01 | 0.01 | 83 | 1022.7 |
| 20260902133019 | 67 | 158 | 1.7 | 5.2 | 0.00 | 0.01 | 0.01 | 84 | 1022.7 |
| 20260902131515 | 67 | 61 | 1.7 | 5.2 | 0.00 | 0.01 | 0.01 | 85 | 1022.8 |
| 20260902130012 | 66 | 102 | 0.9 | 4.3 | 0.00 | 0.01 | 0.01 | 86 | 1022.7 |
| 20260902124510 | 64 | 357 | 2.6 | 5.2 | 0.00 | 0.01 | 0.01 | 86 | 1022.6 |
| 20260902123011 | 64 | 49 | 1.7 | 5.2 | 0.00 | 0.01 | 0.01 | 86 | 1022.6 |
| 20260902121508 | 64 | 299 | 0.9 | 4.3 | 0.00 | 0.01 | 0.01 | 88 | 1022.6 |
| 20260902120003 | 63 | 38 | 1.7 | 6.1 | 0.00 | 0.01 | 0.01 | 88 | 1022.6 |
| 20260902114659 | 62 | 47 | 1.7 | 7.0 | 0.00 | 0.01 | 0.01 | 89 | 1022.6 |
| 20260902113100 | 62 | 80 | 0.0 | 3.5 | 0.00 | 0.01 | 0.01 | 90 | 1022.6 |
| 20260902111554 | 61 | 39 | 1.7 | 4.3 | 0.00 | 0.01 | 0.01 | 91 | 1022.5 |
| 20260902110056 | 60 | 49 | 0.9 | 4.3 | 0.00 | 0.01 | 0.01 | 91 | 1022.6 |
| 20260902104614 | 60 | 50 | 0.0 | 2.6 | 0.00 | 0.01 | 0.01 | 92 | 1022.5 |
| 20260902103046 | 59 | 60 | 0.0 | 0.9 | 0.00 | 0.01 | 0.01 | 93 | 1022.4 |
| 20260902101544 | 58 | 13 | 0.0 | 2.6 | 0.00 | 0.01 | 0.01 | 93 | 1022.3 |
| 20260902100106 | 57 | 61 | 0.0 | 3.5 | 0.00 | 0.01 | 0.01 | 93 | 1022.3 |
| 20260902094542 | 57 | 57 | 0.0 | 2.6 | 0.00 | 0.01 | 0.01 | 94 | 1022.1 |
| 20260902093041 | 56 | 79 | 0.0 | 1.7 | 0.01 | 0.01 | 0.01 | 94 | 1022.0 |
| 20260902091540 | 57 | 248 | 0.0 | 0.9 | 0.01 | 0.01 | 0.01 | 94 | 1021.8 |
| 20260902090039 | 56 | 340 | 0.0 | 1.7 | 0.01 | 0.01 | 0.01 | 94 | 1021.8 |
| 20260902084536 | 57 | 80 | 0.0 | 0.9 | 0.01 | 0.01 | 0.01 | 94 | 1021.5 |
| 20260902083034 | 56 | 267 | 0.0 | 1.7 | 0.00 | 0.00 | 0.00 | 94 | 1021.5 |
| 20260902081544 | 56 | 114 | 0.0 | 0.0 | 0.00 | 0.00 | 0.00 | 94 | 1021.4 |
| 20260902080034 | 56 | 115 | 0.0 | 0.0 | 0.00 | 0.00 | 0.00 | 93 | 1021.3 |
| 20260902074530 | 56 | 115 | 0.0 | 0.0 | 0.00 | 0.00 | 0.00 | 93 | 1021.2 |
| 20260902073028 | 57 | 351 | 0.0 | 3.5 | 0.00 | 0.00 | 0.00 | 93 | 1021.2 |
| 20260902071534 | 57 | 38 | 0.0 | 2.6 | 0.00 | 0.00 | 0.00 | 93 | 1021.1 |
| 20260902070026 | 56 | 140 | 0.0 | 0.9 | 0.00 | 0.00 | 0.00 | 93 | 1021.0 |
| 20260902064523 | 57 | 69 | 0.0 | 0.0 | 0.00 | 0.00 | 0.00 | 93 | 1020.8 |
| 20260902063023 | 57 | 65 | 0.0 | 0.9 | 0.00 | 0.00 | 0.00 | 93 | 1020.7 |
| 20260902061519 | 57 | 39 | 0.0 | 1.7 | 0.00 | 0.00 | 0.00 | 93 | 1020.6 |
| 20260902060018 | 57 | 49 | 0.0 | 2.6 | 0.00 | 0.00 | 0.00 | 93 | 1020.5 |
| 20260902054517 | 58 | 54 | 0.9 | 3.5 | 0.00 | 0.00 | 0.00 | 93 | 1020.4 |
| 20260902053016 | 57 | 68 | 0.0 | 5.2 | 0.00 | 0.00 | 0.00 | 93 | 1020.3 |
| 20260902051514 | 58 | 120 | 0.0 | 4.3 | 0.00 | 0.00 | 0.00 | 93 | 1020.2 |
| 20260902050019 | 58 | 48 | 0.9 | 4.3 | 0.00 | 0.00 | 0.00 | 93 | 1020.1 |
| 20260902044532 | 58 | 40 | 0.9 | 3.5 | 0.00 | 0.00 | 0.00 | 93 | 1020.2 |
| 20260902043010 | 58 | 49 | 0.0 | 2.6 | 0.00 | 0.00 | 0.00 | 93 | 1020.1 |
| 20260902041512 | 57 | 49 | 0.0 | 0.9 | 0.00 | 0.00 | 0.00 | 93 | 1020.0 |
| 20260902040007 | 57 | 61 | 0.0 | 0.0 | 0.00 | 0.00 | 0.00 | 93 | 1020.0 |
| 20260902034506 | 58 | 61 | 0.0 | 0.9 | 0.00 | 0.00 | 0.00 | 93 | 1020.0 |
| 20260902033005 | 58 | 58 | 0.0 | 0.9 | 0.00 | 0.00 | 0.00 | 93 | 1019.9 |
| 20260902031508 | 58 | 59 | 0.0 | 0.0 | 0.00 | 0.00 | 0.00 | 92 | 1019.9 |
| 20260902030002 | 58 | 61 | 0.0 | 0.9 | 0.00 | 0.00 | 0.00 | 92 | 1019.8 |
| 20260902024613 | 58 | 51 | 0.0 | 2.6 | 0.00 | 0.00 | 0.00 | 92 | 1019.8 |
| 20260902023100 | 58 | 65 | 0.0 | 1.7 | 0.00 | 0.00 | 0.00 | 92 | 1019.8 |
| 20260902021600 | 58 | 262 | 0.0 | 0.9 | 0.00 | 0.00 | 0.00 | 92 | 1019.8 |
| 20260902020126 | 58 | 141 | 0.0 | 0.9 | 0.00 | 0.00 | 0.00 | 92 | 1019.7 |